Benton Harbor, MI

3:01 PM EST on February 25, 2017 (GMT -0500)
Southwest Michigan Regional

Weather History for KBEH - May, 2012

Change the Weather History Date:

Friday, May 11, 2012

  Actual Average Record
Temperature  
Mean Temperature 54 °F -  
Max Temperature 73 °F 68 °F 89 °F (2011)
Min Temperature 36 °F 46 °F 28 °F (1949)
Degree Days  
Heating Degree Days 10    
Growing Degree Days 4 (Base 50)    
Moisture  
Dew Point 39 °F    
Average Humidity 58    
Maximum Humidity 100    
Minimum Humidity 26    
Precipitation  
Precipitation 0.00 in - - ()
Sea Level Pressure  
Sea Level Pressure 30.11 in    
Wind  
Wind Speed 3 mph (South)    
Max Wind Speed 13 mph    
Max Gust Speed 20 mph    
Visibility 10 miles    
Events      
Averages and records for this station are not official NWS values.
T = Trace of Precipitation, MM = Missing Value Source: NWS Daily Summary

Daily Weather History Graph

Daily Weather History Graph

Search for Another Location

Airport or City:

Trip Planner

Search our weather history database for the weather conditions in past years. The results will help you decide how hot, cold, wet, or windy it might be!

Date:

Astronomy

May. 11, 2012 Rise Set
Actual Time 6:28 AM EDT 8:56 PM EDT
Civil Twilight 5:56 AM EDT 9:27 PM EDT
Nautical Twilight 5:17 AM EDT 10:07 PM EDT
Astronomical Twilight 4:33 AM EDT 10:51 PM EDT
Moon 1:34 AM EDT (5/11) 12:01 PM EDT (5/11)
Length of Visible Light 15h 30m
Length of Day
14h 27m
Waning Gibbous, 63% of the Moon is Illuminated
May 11
Waning Gibbous
May 12
Last Quarter
May 20
New
May 28
First Quarter
Jun 4
Full

Hourly Weather History & Observations

Time (EDT) Temp. Windchill Dew Point Humidity Pressure Visibility Wind Dir Wind Speed Gust Speed Precip Events Conditions
12:53 AM 39.0 °F - 37.9 °F 96% 30.06 in 10.0 mi Calm Calm - N/A   Clear
1:53 AM 39.0 °F - 37.0 °F 93% 30.08 in 8.0 mi Calm Calm - N/A   Clear
2:53 AM 37.9 °F - 37.0 °F 97% 30.08 in 10.0 mi Calm Calm - N/A   Clear
3:53 AM 37.0 °F - 36.0 °F 96% 30.09 in 10.0 mi Calm Calm - N/A   Clear
4:53 AM 37.0 °F - 36.0 °F 96% 30.10 in 9.0 mi Calm Calm - N/A   Clear
5:53 AM 37.0 °F - 36.0 °F 96% 30.11 in 10.0 mi Calm Calm - N/A   Clear
6:53 AM 36.0 °F 33.3 °F 36.0 °F 100% 30.12 in 9.0 mi East 3.5 mph - N/A   Clear
7:53 AM 45.0 °F - 39.9 °F 82% 30.14 in 10.0 mi Calm Calm - N/A   Clear
8:53 AM 53.1 °F - 39.9 °F 61% 30.15 in 10.0 mi SSE 5.8 mph - N/A   Clear
9:53 AM 57.9 °F - 39.9 °F 51% 30.14 in 10.0 mi SSE 6.9 mph - N/A   Clear
10:53 AM 64.0 °F - 39.9 °F 41% 30.14 in 10.0 mi SSE 6.9 mph - N/A   Clear
11:53 AM 68.0 °F - 39.0 °F 35% 30.14 in 10.0 mi SSE 9.2 mph 16.1 mph N/A   Clear
12:53 PM 70.0 °F - 37.0 °F 30% 30.14 in 10.0 mi South 10.4 mph 16.1 mph N/A   Clear
1:53 PM 72.0 °F - 37.0 °F 28% 30.13 in 10.0 mi SSE 11.5 mph 17.3 mph N/A   Clear
2:53 PM 73.9 °F - 37.0 °F 26% 30.12 in 10.0 mi SSW 8.1 mph 19.6 mph N/A   Clear
3:53 PM 71.1 °F - 37.0 °F 29% 30.13 in 10.0 mi West 12.7 mph - N/A   Clear
4:53 PM 73.0 °F - 37.9 °F 28% 30.10 in 10.0 mi West 8.1 mph - N/A   Clear
5:53 PM 72.0 °F - 39.0 °F 30% 30.09 in 10.0 mi WSW 5.8 mph - N/A   Clear
6:53 PM 73.0 °F - 39.9 °F 30% 30.09 in 10.0 mi WSW 10.4 mph - N/A   Clear
7:53 PM 71.1 °F - 42.1 °F 35% 30.09 in 10.0 mi WSW 6.9 mph - N/A   Clear
8:53 PM 69.1 °F - 43.0 °F 39% 30.09 in 10.0 mi SW 3.5 mph - N/A   Scattered Clouds
9:53 PM 62.1 °F - 48.0 °F 60% 30.11 in 10.0 mi SE 3.5 mph - N/A   Mostly Cloudy
10:53 PM 60.1 °F - 48.0 °F 64% 30.12 in 10.0 mi SSE 3.5 mph - N/A   Clear
11:53 PM 63.0 °F - 44.1 °F 50% 30.12 in 10.0 mi South 5.8 mph - N/A   Clear